Weather Roundup
Issued by NWS Springfield, MO

Home | Current Version | Previous Version | Text Only | Print | Product List | Glossary On
Versions: 1 2 3 4 5 6 7 8 9 10 11 12 13 14 15 16 17 18 19 20 21 22 23 24 25 26 27 28 29 30 31 32 33 34 35 36 37 38 39 40 41 42 43 44 45 46 47 48 49 50
000
NZUS99 KSGF 060307
HRRSGF

HOURLY WEATHER
NATIONAL WEATHER SERVICE SPRINGFIELD MO
1000 PM CDT THU MAY 05 2016

......SGF CWA......

CITY           SKY/WX    TMP DP  RH WIND       PRES   REMARKS
SPRINGFIELD    CLEAR     52  39  61 CALM      30.04R
JOPLIN         CLEAR     59  43  55 CALM      30.05R
WEST PLAINS    CLEAR     52  36  54 CALM      30.05R
ROLLA          CLEAR     50  40  68 CALM      30.03R
OSAGE BEACH    CLEAR     50  32  50 CALM      30.05R

......SURROUNDING SGF CWA......

CITY           SKY/WX    TMP DP  RH WIND       PRES   REMARKS
CHANUTE        CLEAR     57  48  72 CALM      30.04R
PARSONS        CLEAR     57  51  80 CALM      30.05R
COFFEYVILLE    CLEAR     58  49  72 CALM      30.04R
EMPORIA        CLEAR     60  46  59 S5        30.04R
GROVE OK       CLEAR     59  52  77 CALM      30.05R
ROGERS AR      CLEAR     58  43  57 NE3       30.06R
SILOAM SPRINGS CLEAR     57  41  54 CALM      30.06R
HARRISON AR    CLEAR     56  34  43 NW3       30.05R
NEAR YELLVILLE CLEAR    N/A N/A N/A NW3       30.00R

......KANSAS AND MISSOURI......

CITY           SKY/WX    TMP DP  RH WIND       PRES   REMARKS
KANSAS CTY INT CLEAR     63  38  39 E3        30.04R
DOWNTOWN KC    CLEAR     63  43  48 CALM      30.03R
COLUMBIA       CLEAR     57  40  52 N3        30.04R
SEDALIA        CLEAR     61  32  33 CALM      30.06R
ST JOSEPH      CLEAR     61  47  59 SW3       30.04R
ST LOUIS       CLEAR     57  43  59 NW3       30.03R
SPIRIT OF STL  CLEAR     50  46  86 W5        30.03R
KIRKSVILLE     CLEAR     47  42  83 W3        30.04S
WICHITA        CLEAR     65  46  50 S3        30.04R
TOPEKA         CLEAR     59  49  69 CALM      30.04R
OLATHE         CLEAR     58  43  57 CALM      30.05R

......TENNESSEE......

CITY           SKY/WX    TMP DP  RH WIND       PRES   REMARKS
MEMPHIS        CLEAR     61  43  51 NE13      30.00R
NASHVILLE      PTCLDY    53  43  68 NW6       29.98R

......ARKANSAS.......

CITY           SKY/WX    TMP DP  RH WIND       PRES   REMARKS
FAYETTEVILLE   CLEAR     51  47  86 S3        30.05R
FT SMITH       CLEAR     67  44  43 N6        30.01R
LITTLE ROCK    CLEAR     64  40  41 N7        30.00R

......OKLAHOMA.......

CITY           SKY/WX    TMP DP  RH WIND       PRES   REMARKS
TULSA          PTCLDY    67  47  48 SE3       30.02R
PONCA CITY     CLEAR     62  48  60 S3        30.04R
MCALESTER      CLEAR     56  51  84 CALM      30.05R
OKLAHOMA CITY  PTCLDY    65  44  46 E6        30.05R

......IOWA............

CITY           SKY/WX    TMP DP  RH WIND       PRES   REMARKS
DES MOINES     CLEAR     60  38  43 S8        30.00S
QUAD CITIES    CLEAR     50  42  74 CALM      29.99R

......ILLINOIS........

CITY           SKY/WX    TMP DP  RH WIND       PRES   REMARKS
QUINCY         CLEAR     54  41  61 CALM      30.02R
CHICAGO        PTCLDY    49  36  61 CALM      29.98S




USA.gov is the U.S. government's official web portal to all federal, state and local government web resources and services.